TOURFACTS.DK  
Stats and Facts from Tour de France.

Tour de France 2019 starts in 348 days
  Riders   Stages   Teams   Summits   Yearly  


 
Search by year

After 2018 - Stage 14:
 15000 starters.
  5163 different riders.
  639 teams.
  2246 stages.
  456 restdays.
  441957.60 km.
  5678 abandonnees.


Top 3
GC
Christopher Froome86:20:55
Rigoberto Urán86:21:49
Romain Bardet86:23:15
Climb
Warren Barguil169 pt.
Primoz Roglic80 pt.
Thomas De Gendt64 pt.
Sprint
Michael Matthews359 pt.
André Greipel234 pt.
Edvald Boasson Hagen220 pt.
Youth
Simon Yates86:27:09
Louis Meintjes86:29:15
Emanuel Buchmann86:54:16
Facts from Tour de France 1974
  |   Stages.  |   Stage winners.  |   Days in yellow  |   Average speed.  |   Route.  |   Teams.  |   All riders.  |   Rookies.  |  

  |   Withdrawls.  |   GC.  |   Polka  |   Green  |   White  |   Summits. (In tour)  |   Miscellaneous.  |  

Stage 11 on July 9th. 1974
         Owning:    Eddy Merckx    
Pick a stage:  Pro 1 2 3 4 5 6a 6b 7 8a 8b 9 10 11 12 13 14 15 16 17 18 19a 19b 20 21a 21b 22
From: Aix-les-Bains    To: Serre-ChevalierDist:199.00 km.
Cat: 4Col de Marocaz - ChamberyBELEric Leman
5 points
 
Cat: 3Col de la CochetteESPDomingo Perurena
10 points
 
Cat: 3Col du Grand CucheronESPDomingo Perurena
10 points
 
Cat: 2Col du TélégrapheBELHerman Van Springel
12 points
 
Cat: 1Col du GalibierESPVicente Lopez
15 points
 

Average speed for all riders in stage:  27,534 km./hr.
    Place:Name:Team:Time:Km/h:
ESPVicente LopezESPKas-Kaskol06:55:36  +  00:00:00=28,730 
BELEddy MerckxITAMolteni06:56:30  +  00:00:54=28,667 
ESPFrancisco GaldosESPKas-Kaskol06:56:30  +  00:00:54=28,667 
4 ESPGonzalo AjaESPKas-Kaskol06:56:30  +  00:00:54=28,667 
5 FRARoger PingeonFRAJobo-Lejeune06:57:59  +  00:02:23=28,566 
6 ITAWladimiro PanizzaITABrooklyn06:57:59  +  00:02:23=28,566 
7 FRAAlain SantyFRAGan-Mercier-Hutchinson06:57:59  +  00:02:23=28,566 
8 BELHerman Van SpringelBELMic-De Gribaldy-Ludo06:59:22  +  00:03:46=28,472 
9 PORJoaquim AgostinhoFRABic06:59:22  +  00:03:46=28,472 
10 FRARaymond PoulidorFRAGan-Mercier-Hutchinson07:01:53  +  00:06:17=28,302 
11 ESPAndré RomeroFRAJobo-Lejeune07:02:34  +  00:06:58=28,256 
12 FRARaymond DelisleFRAPeugeot-BP-Michelin07:02:34  +  00:06:58=28,256 
13 FRABernard LabourdetteFRABic07:02:34  +  00:06:58=28,256 
14 BELJoseph BruyereITAMolteni07:02:34  +  00:06:58=28,256 
15 ESPMariano MartinezFRASonolor-Gitanes07:02:34  +  00:06:58=28,256 
16 FRAMichel PerinFRAGan-Mercier-Hutchinson07:04:23  +  00:08:47=28,135 
17 ESPLuis ZuberoESPKas-Kaskol07:04:23  +  00:08:47=28,135 
18 FRAChristian BlainFRAJobo-Lejeune07:04:23  +  00:08:47=28,135 
19 BELMichel PollentierBELCarpenter Confortluxe-Flandria07:04:23  +  00:08:47=28,135 
20 NEDFedor Iwan Den HertogNLDFrisol-Flair Plastics07:05:03  +  00:09:27=28,091 
21 BELWilly Van NesteFRASonolor-Gitanes07:05:04  +  00:09:28=28,090 
22 FRAJosé CatieauFRABic07:05:04  +  00:09:28=28,090 
23 FRAFerdinand JulienFRASonolor-Gitanes07:05:04  +  00:09:28=28,090 
24 FRAJean-Pierre DanguillaumeFRAPeugeot-BP-Michelin07:05:04  +  00:09:28=28,090 
25 ITAArturo PecchielanITABrooklyn07:05:04  +  00:09:28=28,090 
26 BELLucien Van ImpeFRASonolor-Gitanes07:05:04  +  00:09:28=28,090 
27 FRARoland BerlandFRABic07:05:04  +  00:09:28=28,090 
28 ESPAndrês OlivaESPLa Casera-Peña Bahamontes07:05:04  +  00:09:28=28,090 
29 FRACyrille GuimardFRAMerlin Plage-Flandria07:06:27  +  00:10:51=27,999 
30 COLAntonio MartosESPKas-Kaskol07:06:27  +  00:10:51=27,999 
31 FRARégis OvionFRAPeugeot-BP-Michelin07:06:27  +  00:10:51=27,999 
32 ITAGiancarlo BelliniITABrooklyn07:07:16  +  00:11:40=27,945 
33 ESPJuan ZuranoESPLa Casera-Peña Bahamontes07:07:28  +  00:11:52=27,932 
34 FRAJoël MillardFRAMerlin Plage-Flandria07:07:28  +  00:11:52=27,932 
35 BELGeorges PintensBELMic-De Gribaldy-Ludo07:07:43  +  00:12:07=27,916 
36 BELAndré DierickxFRAMerlin Plage-Flandria07:07:43  +  00:12:07=27,916 
37 BELMarc DemeyerBELCarpenter Confortluxe-Flandria07:09:05  +  00:13:29=27,827 
38 BELRonald De WitteBELCarpenter Confortluxe-Flandria07:09:05  +  00:13:29=27,827 
39 ESPCarlos MeleroESPKas-Kaskol07:09:05  +  00:13:29=27,827 
40 BELVictor Van SchilITAMolteni07:09:05  +  00:13:29=27,827 
41 ESPMiguel LasaESPKas-Kaskol07:09:05  +  00:13:29=27,827 
42 BELJoseph SpruytITAMolteni07:09:05  +  00:13:29=27,827 
43 NEDCees BalFRAGan-Mercier-Hutchinson07:09:05  +  00:13:29=27,827 
44 ESPJesus ManzanequeESPLa Casera-Peña Bahamontes07:10:10  +  00:14:34=27,757 
45 FRASylvain VasseurFRABic07:10:10  +  00:14:34=27,757 
46 BELJos De SchoenmaeckerITAMolteni07:10:10  +  00:14:34=27,757 
47 FRAGuy SibilleFRAPeugeot-BP-Michelin07:11:03  +  00:15:27=27,700 
48 ENGBarry HobanFRAGan-Mercier-Hutchinson07:11:28  +  00:15:52=27,673 
49 BELMarc LievensITAMolteni07:11:28  +  00:15:52=27,673 
50 PORHerculano FerreiraBELMic-De Gribaldy-Ludo07:11:54  +  00:16:18=27,645 
51 ESPAntonio MenendezESPKas-Kaskol07:11:55  +  00:16:19=27,644 
52 ESPJosé PesarrodonaESPKas-Kaskol07:11:57  +  00:16:21=27,642 
53 ITAFausto BertoglioITABrooklyn07:12:25  +  00:16:49=27,612 
54 BELJan Van De WieleBELMic-De Gribaldy-Ludo07:12:25  +  00:16:49=27,612 
55 BELEduard JanssensITAMolteni07:12:25  +  00:16:49=27,612 
56 ESPDamaso TorresESPLa Casera-Peña Bahamontes07:13:03  +  00:17:27=27,572 
57 ESPDomingo PerurenaESPKas-Kaskol07:13:03  +  00:17:27=27,572 
58 FRAAlain VasseurFRABic07:13:03  +  00:17:27=27,572 
59 BELGustaaf Van RoosbroeckBELMic-De Gribaldy-Ludo07:13:32  +  00:17:56=27,541 
60 FRAAlain NoguesFRASonolor-Gitanes07:13:32  +  00:17:56=27,541 
61 FRAJean-Claude MisacFRAMerlin Plage-Flandria07:13:33  +  00:17:57=27,540 
62 NEDGerrie KnetemannFRAGan-Mercier-Hutchinson07:14:46  +  00:19:10=27,463 
63 NEDHenk PrinsenNLDFrisol-Flair Plastics07:15:03  +  00:19:27=27,445 
64 BELJoseph HuysmansITAMolteni07:15:40  +  00:20:04=27,406 
65 BELLudo DelcroixITAMolteni07:15:40  +  00:20:04=27,406 
66 BELNoël VancloosterBELMic-De Gribaldy-Ludo07:15:40  +  00:20:04=27,406 
67 FRAGerard MoneyronFRAMerlin Plage-Flandria07:15:40  +  00:20:04=27,406 
68 FRAFrancis CampanerFRAJobo-Lejeune07:21:58  +  00:26:22=27,016 
69 BELWilly TeirlinckFRASonolor-Gitanes07:21:58  +  00:26:22=27,016 
70 BELWilfried WesemaelBELMic-De Gribaldy-Ludo07:21:58  +  00:26:22=27,016 
71 BELDirk BaertBELMic-De Gribaldy-Ludo07:21:58  +  00:26:22=27,016 
72 NEDPiet Van KatwijkNLDFrisol-Flair Plastics07:21:58  +  00:26:22=27,016 
73 NEDGerben KarstensFRABic07:21:58  +  00:26:22=27,016 
74 BELFrans Van LooyBELCarpenter Confortluxe-Flandria07:21:58  +  00:26:22=27,016 
75 FRABernard CroyetFRABic07:21:58  +  00:26:22=27,016 
76 NEDGerard VianenFRAGan-Mercier-Hutchinson07:21:58  +  00:26:22=27,016 
77 BELRonny VanmarckeBELMic-De Gribaldy-Ludo07:21:58  +  00:26:22=27,016 
78 ESPJosé AbilleiraESPLa Casera-Peña Bahamontes07:21:58  +  00:26:22=27,016 
79 BELFrans MintjensITAMolteni07:21:58  +  00:26:22=27,016 
80 FRAJacques EsclassanFRAPeugeot-BP-Michelin07:21:58  +  00:26:22=27,016 
81 FRARobert MintkiewiczFRASonolor-Gitanes07:21:58  +  00:26:22=27,016 
82 FRAAlain CiganaFRAJobo-Lejeune07:21:58  +  00:26:22=27,016 
83 FRAJacky MouriouxFRAGan-Mercier-Hutchinson07:21:58  +  00:26:22=27,016 
84 FRACharly RouxelFRAPeugeot-BP-Michelin07:21:58  +  00:26:22=27,016 
85 ESPFelix GonzalezESPLa Casera-Peña Bahamontes07:21:58  +  00:26:22=27,016 
86 ESPFernando PlazaESPLa Casera-Peña Bahamontes07:21:58  +  00:26:22=27,016 
87 FRAClaude MagniFRAJobo-Lejeune07:21:58  +  00:26:22=27,016 
88 FRAJean-Claude BlocherFRAJobo-Lejeune07:21:58  +  00:26:22=27,016 
89 FRABernard BourreauFRAPeugeot-BP-Michelin07:21:58  +  00:26:22=27,016 
90 ITAAldo ParecchiniITABrooklyn07:21:58  +  00:26:22=27,016 
91 FRADaniel RebillardFRAMerlin Plage-Flandria07:21:58  +  00:26:22=27,016 
92 FRADaniel DucreuxFRAJobo-Lejeune07:21:58  +  00:26:22=27,016 
93 BELArthur Van de VyverBELCarpenter Confortluxe-Flandria07:21:58  +  00:26:22=27,016 
94 FRAJacques BotherelFRASonolor-Gitanes07:21:58  +  00:26:22=27,016 
95 FRAJean-Pierre GuillemotFRAJobo-Lejeune07:21:58  +  00:26:22=27,016 
96 FRAJean-Luc MolinerisFRABic07:21:58  +  00:26:22=27,016 
97 ITAAttilio RotaITABrooklyn07:21:58  +  00:26:22=27,016 
98 FRAJean-Pierre GenetFRAGan-Mercier-Hutchinson07:21:58  +  00:26:22=27,016 
99 FRAJean-Jacques SanquerFRAMerlin Plage-Flandria07:21:58  +  00:26:22=27,016 
100 ENGMichael WrightFRASonolor-Gitanes07:21:58  +  00:26:22=27,016 
101 BELPatrick SercuITABrooklyn07:21:58  +  00:26:22=27,016 
102 FRARaymond RiotteFRAPeugeot-BP-Michelin07:21:58  +  00:26:22=27,016 
103 FRAAndré MolletFRAPeugeot-BP-Michelin07:21:58  +  00:26:22=27,016 
104 BELEric LemanBELMic-De Gribaldy-Ludo07:21:58  +  00:26:22=27,016 
105 ITAValerio LualdiITABrooklyn07:21:58  +  00:26:22=27,016 
106 FRABernard MassonFRAJobo-Lejeune07:21:58  +  00:26:22=27,016 
107 DENLeif MortensenFRABic07:21:58  +  00:26:22=27,016 
108 ITAGianni Di LorenzoITABrooklyn07:24:32  +  00:28:56=26,860 
109 FRAChristian RaymondFRAGan-Mercier-Hutchinson07:24:32  +  00:28:56=26,860 
110 NEDWim PrinsenNLDFrisol-Flair Plastics07:24:32  +  00:28:56=26,860 
111 BELDaniel VerplanckeBELCarpenter Confortluxe-Flandria07:26:02  +  00:30:26=26,769 
112 ITALorenzo AlaimoNLDFrisol-Flair Plastics07:26:02  +  00:30:26=26,769 
113 AUSDonald AllanNLDFrisol-Flair Plastics07:26:02  +  00:30:26=26,769 
114 FRAMichel CorollerFRAMerlin Plage-Flandria07:26:02  +  00:30:26=26,769 
115 FRARegis DelepineFRAMerlin Plage-Flandria07:26:02  +  00:30:26=26,769 

Withdrawls: 7
 
Rider
Team
Reason
21  FRABernard ThevenetFRAPeugeot-BP-MichelinDid not finish
73  ESPJesus EsperanzaESPLa Casera-Peña BahamontesDid not finish
79  ESPAntonio Vallori MateuESPLa Casera-Peña BahamontesDid not finish
112  BELEddy CaelBELCarpenter Confortluxe-FlandriaDid not finish
113  BELWilfried DavidBELCarpenter Confortluxe-FlandriaDid not finish
120  BELRoger VerschaeveBELCarpenter Confortluxe-FlandriaDid not start
126  NEDHenk PoppeNLDFrisol-Flair PlasticsDid not finish

Todays birthdays.

1877  Antoine Perrichon
1878  Auguste Berthault
1911  Théo Herckenrath
1924  Carlo Lafranchi
1931  Armand Di Caro
1937  Jean-Claude Lebaube
1951  Giovanni Battaglin
1961  Pascal Jules
1962  Jean-Claude Leclercq
1976  Janek Tombak
1978  Francisco Pérez
1983  Dries Devenyns




Visits: